Location: Newark
(46.9000°N, 28.3500°E)
Time: 03:44:57
(UTC+00:00)

Explorer 7 - Pass Details

Date: 01 September 2019
Orbit: 485 x 680 km, 50.3° (Epoch: 14 October)

Event Time Altitude Azimuth Distance (km) Brightness Sun altitude
Rises 10:20:36 0° 290° (WNW) 2,961 10.5 51.3°
Reaches altitude 10° 10:23:14 10° 279° (W) 2,018 9.8 51.2°
Maximum altitude 10:27:10 28° 221° (SW) 1,157 9.6 51.2°
Drops below altitude 10° 10:30:54 10° 163° (SSE) 1,904 10.3 51.1°
Sets 10:33:20 0° 151° (SSE) 2,762 10.8 51.0°
